Regional Weather Roundup
Issued by NWS

Home | Current Version | Previous Version | Graphics & Text | Print | Product List | Glossary On
Versions: 1 2 3 4 5 6 7 8 9 10 11 12 13 14 15 16 17 18 19 20 21 22 23 24 25 26 27 28 29 30 31 32 33 34 35 36 37 38 39 40 41 42 43 44 45 46 47 48 49 50
000
ASUS43 KOAX 221702
RWRNE

WEATHER ROUNDUP FOR NEBRASKA
NATIONAL WEATHER SERVICE OMAHA NE
1100 AM CST SAT NOV 22 2014

NOTES: SATELLITE DATA IS BEING USED TO AUGMENT CLOUD COVER ABOVE
       12000 FEET.
       "FAIR" INDICATES FEW OR NO CLOUDS BELOW 12,000 FEET WITH NO
       SIGNIFICANT WEATHER AND/OR OBSTRUCTIONS TO VISIBILITY.

  * THESE STATIONS DO NOT REPORT WEATHER SUCH AS RAIN...SNOW OR FOG.

NEZ001>004-019>022-054>056-221800-
NEBRASKA PANHANDLE

CITY           SKY/WX    TMP DP  RH WIND       PRES   REMARKS
SCOTTSBLUFF    CLOUDY    57  19  22 SW21G30   29.64F
ALLIANCE       PTSUNNY   58  17  20 SW22G37   29.63F
CHADRON        CLOUDY    52  25  35 SW22G29   29.54F
KIMBALL        CLOUDY    49  21  32 CALM      29.68F
SIDNEY         CLOUDY    50  20  30 W9        29.70F
$$

NEZ057>060-069>072-079>082-221800-
SOUTHWEST NEBRASKA

CITY           SKY/WX    TMP DP  RH WIND       PRES   REMARKS
NORTH PLATTE   SUNNY     43  25  49 S5        29.71F
IMPERIAL       SUNNY     61  19  19 S24G31    29.69F
MCCOOK         SUNNY     47  26  44 SW5       29.74F
$$

NEZ005>010-023>029-035>040-094-221800-
NORTH CENTRAL NEBRASKA

CITY           SKY/WX    TMP DP  RH WIND       PRES   REMARKS
VALENTINE      PTSUNNY   43  29  57 SW9       29.59F
AINSWORTH      MOSUNNY   51  26  36 SW12      29.62F
BROKEN BOW     SUNNY     54  28  36 SW14      29.70F
ORD            SUNNY     45  35  68 SE3       29.71F
$$

NEZ041-046>049-061>064-073>077-083>087-221800-
SOUTH CENTRAL NEBRASKA

CITY           SKY/WX    TMP DP  RH WIND       PRES   REMARKS
GRAND ISLAND   SUNNY    N/A N/A N/A S13       29.77F
HASTINGS       SUNNY     41  34  76 S15       29.77F
KEARNEY *      SUNNY     41  30  65 S9        29.77F
YORK           FOG       37  37 100 S16       29.80F VSB 1   WCI  28
$$

NEZ011>018-030>034-042>045-221800-
NORTHEAST NEBRASKA

CITY           SKY/WX    TMP DP  RH WIND       PRES   REMARKS
NORFOLK        MOSUNNY   39  35  86 S9        29.73F WCI  33
BLAIR          CLOUDY    40  38  93 S16       29.81S FOG     WCI  32
COLUMBUS *     CLOUDY    39  34  81 S12       29.79F WCI  32
FREMONT        CLOUDY    40  38  94 S9        29.81S FOG     WCI  34
TEKAMAH        CLOUDY    41  37  86 S20       29.81F FOG
$$

NEZ050>053-065>068-078-088>093-221800-
SOUTHEAST NEBRASKA

CITY           SKY/WX    TMP DP  RH WIND       PRES   REMARKS
LINCOLN        CLOUDY    41  37  86 S18       29.84S FOG
OMAHA EPPLEY   CLOUDY    41  38  89 S14       29.85R FOG
FALLS CITY     CLOUDY    52  49  89 SW13      29.87F
$$

NEZ044-045-051>053-067-221800-
OMAHA AREA

CITY           SKY/WX    TMP DP  RH WIND       PRES   REMARKS
OMAHA EPPLEY   CLOUDY    41  38  89 S14       29.85R FOG
BLAIR          CLOUDY    40  38  93 S16       29.81S FOG     WCI  32
FREMONT        CLOUDY    40  38  94 S9        29.81S FOG     WCI  34
OFFUTT AFB     CLOUDY    41  39  93 S13       29.84F
$$


USA.gov is the U.S. government's official web portal to all federal, state and local government web resources and services.